| time (UTC) | temp C | wind direction | speed KPH | gust KPH | rain 1hr cm | rain 24hr cm | rain mn cm | humidity % | barometer mb |
| 20260503053334 | -17 | 0.0 | 0.0 | 0.00 | 0.00 | 0.00 | 1016.8 | ||
| 20260503052830 | -17 | 0.0 | 0.0 | 0.00 | 0.00 | 0.00 | 1016.8 | ||
| 20260503052413 | -17 | 0.0 | 0.0 | 0.00 | 0.00 | 0.00 | 1016.9 | ||
| 20260503051901 | -17 | 0.0 | 0.0 | 0.00 | 0.00 | 0.00 | 1016.9 | ||
| 20260503051327 | -17 | 0.0 | 0.0 | 0.00 | 0.00 | 0.00 | 1016.9 | ||
| 20260503050835 | -17 | 0.0 | 0.0 | 0.00 | 0.00 | 0.00 | 1016.8 | ||
| 20260503050338 | -17 | 0.0 | 0.0 | 0.00 | 0.00 | 0.00 | 1016.9 | ||
| 20260503045904 | -17 | 0.0 | 0.0 | 0.00 | 0.00 | 0.00 | 1016.9 | ||
| 20260503044831 | -17 | 0.0 | 0.0 | 0.00 | 0.00 | 0.00 | 1016.9 | ||
| 20260503044328 | -17 | 0.0 | 0.0 | 0.00 | 0.00 | 0.00 | 1016.9 | ||
| 20260503043835 | -17 | 0.0 | 0.0 | 0.00 | 0.00 | 0.00 | 1017.0 | ||
| 20260503043418 | -17 | 0.0 | 0.0 | 0.00 | 0.00 | 0.00 | 1017.0 | ||
| 20260503042904 | -17 | 0.0 | 0.0 | 0.00 | 0.00 | 0.00 | 1017.1 | ||
| 20260503042328 | -17 | 0.0 | 0.0 | 0.00 | 0.00 | 0.00 | 1017.2 | ||
| 20260503041832 | -17 | 0.0 | 0.0 | 0.00 | 0.00 | 0.00 | 1017.1 | ||
| 20260503041336 | -17 | 0.0 | 0.0 | 0.00 | 0.00 | 0.00 | 1017.2 | ||
| 20260503040919 | -17 | 0.0 | 0.0 | 0.00 | 0.00 | 0.00 | 1017.3 | ||
| 20260503035837 | -17 | 0.0 | 0.0 | 0.00 | 0.00 | 0.00 | 1017.2 | ||
| 20260503035339 | -17 | 0.0 | 0.0 | 0.00 | 0.00 | 0.00 | 1017.4 | ||
| 20260503034828 | -17 | 0.0 | 0.0 | 0.00 | 0.00 | 0.00 | 1017.4 | ||
| 20260503033326 | 26 | 173 | 0.0 | 9.7 | 0.00 | 0.00 | 0.00 | 76 | 1017.4 |
| 20260503032831 | 27 | 131 | 0.0 | 6.4 | 0.00 | 0.00 | 0.00 | 77 | 1017.5 |
| 20260503032327 | 27 | 189 | 1.6 | 12.9 | 0.00 | 0.00 | 0.00 | 77 | 1017.4 |
| 20260503031830 | 27 | 149 | 3.2 | 8.0 | 0.00 | 0.00 | 0.00 | 77 | 1017.4 |
| 20260503031334 | 27 | 165 | 1.6 | 6.4 | 0.00 | 0.00 | 0.00 | 77 | 1017.3 |
| 20260503030830 | 27 | 156 | 0.0 | 8.0 | 0.00 | 0.00 | 0.00 | 78 | 1017.3 |
| 20260503030325 | 27 | 101 | 3.2 | 9.7 | 0.00 | 0.00 | 0.00 | 77 | 1017.2 |
| 20260503025830 | 27 | 178 | 3.2 | 9.7 | 0.00 | 0.00 | 0.00 | 77 | 1017.2 |
| 20260503025328 | 27 | 182 | 1.6 | 9.7 | 0.00 | 0.00 | 0.00 | 78 | 1017.1 |
| 20260503024834 | 27 | 150 | 3.2 | 9.7 | 0.00 | 0.00 | 0.00 | 78 | 1017.1 |
| 20260503024338 | 27 | 172 | 1.6 | 9.7 | 0.00 | 0.00 | 0.00 | 78 | 1017.1 |
| 20260503023325 | 27 | 145 | 3.2 | 8.0 | 0.00 | 0.00 | 0.00 | 78 | 1017.0 |
| 20260503022830 | 27 | 184 | 3.2 | 11.3 | 0.00 | 0.00 | 0.00 | 78 | 1017.0 |
| 20260503022327 | 27 | 165 | 1.6 | 11.3 | 0.00 | 0.00 | 0.00 | 78 | 1017.0 |
| 20260503021831 | 27 | 228 | 1.6 | 8.0 | 0.00 | 0.00 | 0.00 | 78 | 1016.8 |
| 20260503021334 | 27 | 159 | 1.6 | 6.4 | 0.00 | 0.00 | 0.00 | 79 | 1016.8 |
| 20260503020829 | 27 | 165 | 0.0 | 8.0 | 0.00 | 0.00 | 0.00 | 79 | 1016.8 |
| 20260503020334 | 27 | 157 | 1.6 | 9.7 | 0.00 | 0.00 | 0.00 | 79 | 1016.7 |
| 20260503015829 | 27 | 136 | 4.8 | 9.7 | 0.00 | 0.00 | 0.00 | 78 | 1016.7 |
| 20260503015327 | 27 | 160 | 3.2 | 9.7 | 0.00 | 0.00 | 0.00 | 78 | 1016.6 |
| 20260503014832 | 27 | 193 | 4.8 | 12.9 | 0.00 | 0.00 | 0.00 | 77 | 1016.7 |
| 20260503014328 | 27 | 210 | 4.8 | 12.9 | 0.00 | 0.00 | 0.00 | 77 | 1016.6 |
| 20260503013832 | 27 | 165 | 1.6 | 8.0 | 0.00 | 0.00 | 0.00 | 77 | 1016.5 |
| 20260503013327 | 27 | 177 | 3.2 | 14.5 | 0.00 | 0.00 | 0.00 | 77 | 1016.5 |
| 20260503012833 | 27 | 188 | 3.2 | 14.5 | 0.00 | 0.00 | 0.00 | 78 | 1016.3 |
| 20260503012326 | 27 | 213 | 4.8 | 11.3 | 0.00 | 0.00 | 0.00 | 78 | 1016.3 |
| 20260503011831 | 27 | 165 | 1.6 | 11.3 | 0.00 | 0.00 | 0.00 | 78 | 1016.3 |
| 20260503011326 | 27 | 169 | 4.8 | 14.5 | 0.00 | 0.00 | 0.00 | 78 | 1016.2 |
| 20260503010829 | 27 | 191 | 3.2 | 12.9 | 0.00 | 0.00 | 0.00 | 78 | 1016.1 |
| 20260503010326 | 27 | 173 | 4.8 | 12.9 | 0.00 | 0.00 | 0.00 | 78 | 1016.0 |
| 20260503005830 | 27 | 172 | 4.8 | 12.9 | 0.00 | 0.00 | 0.00 | 79 | 1015.9 |
| 20260503005334 | 27 | 176 | 1.6 | 12.9 | 0.00 | 0.00 | 0.00 | 79 | 1015.9 |
| 20260503004830 | 27 | 167 | 6.4 | 12.9 | 0.00 | 0.00 | 0.00 | 78 | 1015.8 |
| 20260503004328 | 27 | 195 | 4.8 | 12.9 | 0.00 | 0.00 | 0.00 | 79 | 1015.8 |
| 20260503003830 | 27 | 158 | 3.2 | 11.3 | 0.00 | 0.00 | 0.00 | 79 | 1015.8 |
| 20260503003326 | 27 | 193 | 3.2 | 14.5 | 0.00 | 0.00 | 0.00 | 78 | 1015.7 |
| 20260503002834 | 27 | 179 | 4.8 | 14.5 | 0.00 | 0.00 | 0.00 | 78 | 1015.6 |
| 20260503002327 | 27 | 211 | 3.2 | 12.9 | 0.00 | 0.00 | 0.00 | 78 | 1015.6 |
| 20260503001831 | 27 | 172 | 6.4 | 12.9 | 0.00 | 0.00 | 0.00 | 78 | 1015.5 |
| 20260503001326 | 27 | 44 | 6.4 | 14.5 | 0.00 | 0.00 | 0.00 | 78 | 1015.4 |
| 20260503000831 | 27 | 166 | 3.2 | 14.5 | 0.00 | 0.00 | 0.00 | 77 | 1015.4 |
| 20260503000327 | 27 | 159 | 4.8 | 11.3 | 0.00 | 0.00 | 0.00 | 77 | 1015.3 |
| 20260502235833 | 27 | 130 | 6.4 | 11.3 | 0.00 | 0.00 | 0.00 | 77 | 1015.3 |
| 20260502235329 | 27 | 167 | 3.2 | 11.3 | 0.00 | 0.00 | 0.00 | 77 | 1015.1 |
| 20260502234826 | 27 | 189 | 4.8 | 12.9 | 0.00 | 0.00 | 0.00 | 77 | 1015.0 |
| 20260502234331 | 27 | 218 | 8.0 | 12.9 | 0.00 | 0.00 | 0.00 | 77 | 1014.9 |
| 20260502233827 | 27 | 141 | 3.2 | 16.1 | 0.00 | 0.00 | 0.00 | 78 | 1014.8 |
| 20260502233332 | 27 | 172 | 6.4 | 16.1 | 0.00 | 0.00 | 0.00 | 78 | 1014.8 |
| 20260502232828 | 27 | 175 | 3.2 | 16.1 | 0.00 | 0.00 | 0.00 | 79 | 1014.8 |
| 20260502232334 | 28 | 177 | 6.4 | 16.1 | 0.00 | 0.03 | 0.00 | 78 | 1014.8 |
| 20260502231830 | 28 | 187 | 0.0 | 14.5 | 0.00 | 0.03 | 0.00 | 78 | 1014.6 |
| 20260502231327 | 28 | 182 | 4.8 | 14.5 | 0.00 | 0.03 | 0.00 | 78 | 1014.6 |
| 20260502230833 | 28 | 186 | 3.2 | 11.3 | 0.00 | 0.03 | 0.00 | 78 | 1014.6 |
| 20260502230329 | 28 | 188 | 3.2 | 12.9 | 0.00 | 0.03 | 0.00 | 78 | 1014.5 |
| 20260502225826 | 28 | 147 | 4.8 | 12.9 | 0.00 | 0.03 | 0.00 | 78 | 1014.5 |
| 20260502225332 | 28 | 165 | 3.2 | 14.5 | 0.00 | 0.03 | 0.00 | 78 | 1014.5 |
| 20260502224829 | 28 | 191 | 3.2 | 14.5 | 0.00 | 0.03 | 0.00 | 77 | 1014.5 |
| 20260502224326 | 28 | 116 | 3.2 | 16.1 | 0.00 | 0.03 | 0.00 | 76 | 1014.4 |
| 20260502223831 | 28 | 128 | 6.4 | 16.1 | 0.00 | 0.03 | 0.00 | 75 | 1014.4 |
| 20260502223328 | 28 | 181 | 6.4 | 14.5 | 0.00 | 0.03 | 0.00 | 74 | 1014.4 |
| 20260502222826 | 28 | 163 | 6.4 | 11.3 | 0.00 | 0.03 | 0.00 | 75 | 1014.3 |
| 20260502222331 | 28 | 206 | 4.8 | 12.9 | 0.00 | 0.03 | 0.00 | 75 | 1014.4 |
| 20260502221827 | 28 | 190 | 8.0 | 14.5 | 0.00 | 0.03 | 0.00 | 74 | 1014.3 |
| 20260502221332 | 28 | 219 | 9.7 | 14.5 | 0.00 | 0.03 | 0.00 | 74 | 1014.3 |
| 20260502220829 | 29 | 143 | 4.8 | 16.1 | 0.00 | 0.03 | 0.00 | 75 | 1014.2 |
| 20260502220334 | 29 | 231 | 11.3 | 16.1 | 0.00 | 0.03 | 0.00 | 74 | 1014.3 |
| 20260502215829 | 29 | 174 | 6.4 | 16.1 | 0.00 | 0.03 | 0.00 | 75 | 1014.2 |
| 20260502215329 | 29 | 165 | 9.7 | 16.1 | 0.00 | 0.03 | 0.00 | 74 | 1014.2 |
| 20260502214833 | 29 | 139 | 6.4 | 16.1 | 0.00 | 0.03 | 0.00 | 74 | 1014.1 |
| 20260502214329 | 29 | 162 | 8.0 | 17.7 | 0.00 | 0.03 | 0.00 | 74 | 1014.0 |
| 20260502213832 | 30 | 270 | 6.4 | 16.1 | 0.00 | 0.03 | 0.00 | 73 | 1014.0 |
| 20260502213328 | 30 | 185 | 4.8 | 12.9 | 0.00 | 0.03 | 0.00 | 72 | 1014.0 |
| 20260502212833 | 30 | 220 | 6.4 | 12.9 | 0.00 | 0.03 | 0.00 | 72 | 1014.0 |
| 20260502212327 | 30 | 124 | 3.2 | 12.9 | 0.00 | 0.03 | 0.00 | 73 | 1013.8 |
| 20260502211832 | 30 | 224 | 3.2 | 11.3 | 0.00 | 0.03 | 0.00 | 73 | 1013.8 |
| 20260502211331 | 29 | 148 | 3.2 | 14.5 | 0.00 | 0.03 | 0.00 | 74 | 1013.8 |
| 20260502210828 | 29 | 176 | 6.4 | 14.5 | 0.00 | 0.03 | 0.00 | 73 | 1013.8 |
| 20260502210333 | 30 | 167 | 6.4 | 12.9 | 0.00 | 0.03 | 0.00 | 74 | 1013.8 |
| 20260502205828 | 29 | 124 | 8.0 | 16.1 | 0.00 | 0.03 | 0.00 | 75 | 1013.8 |
| 20260502205333 | 29 | 191 | 9.7 | 19.3 | 0.00 | 0.03 | 0.00 | 74 | 1013.8 |
| 20260502204828 | 29 | 108 | 8.0 | 19.3 | 0.00 | 0.03 | 0.00 | 74 | 1013.8 |
| 20260502204326 | 30 | 182 | 9.7 | 16.1 | 0.00 | 0.03 | 0.00 | 73 | 1013.8 |
| 20260502203829 | 30 | 176 | 9.7 | 16.1 | 0.00 | 0.03 | 0.00 | 73 | 1013.8 |
| 20260502203334 | 30 | 131 | 6.4 | 19.3 | 0.00 | 0.03 | 0.00 | 74 | 1013.8 |
| 20260502202829 | 30 | 165 | 8.0 | 19.3 | 0.00 | 0.03 | 0.00 | 73 | 1013.9 |
| 20260502202333 | 30 | 187 | 9.7 | 17.7 | 0.00 | 0.03 | 0.00 | 72 | 1013.8 |
| 20260502201838 | 30 | 171 | 8.0 | 17.7 | 0.00 | 0.03 | 0.00 | 72 | 1013.8 |
| 20260502201345 | 30 | 167 | 9.7 | 16.1 | 0.00 | 0.03 | 0.00 | 72 | 1013.9 |
| 20260502200829 | 30 | 219 | 8.0 | 16.1 | 0.00 | 0.03 | 0.00 | 72 | 1013.9 |
| 20260502200328 | 30 | 185 | 9.7 | 16.1 | 0.00 | 0.03 | 0.00 | 72 | 1013.9 |
| 20260502195829 | 30 | 174 | 9.7 | 20.9 | 0.00 | 0.03 | 0.00 | 72 | 1013.9 |
| 20260502195334 | 30 | 160 | 9.7 | 20.9 | 0.00 | 0.03 | 0.00 | 72 | 1014.0 |
| 20260502194919 | 30 | 158 | 8.0 | 16.1 | 0.00 | 0.03 | 0.00 | 72 | 1014.0 |
| 20260502194327 | 30 | 181 | 8.0 | 19.3 | 0.00 | 0.03 | 0.00 | 72 | 1014.1 |
| 20260502193831 | 30 | 196 | 6.4 | 19.3 | 0.00 | 0.03 | 0.00 | 73 | 1014.0 |
| 20260502193327 | 30 | 184 | 11.3 | 19.3 | 0.00 | 0.03 | 0.00 | 72 | 1014.2 |
| 20260502192832 | 30 | 149 | 8.0 | 17.7 | 0.00 | 0.03 | 0.00 | 71 | 1014.3 |
| 20260502192327 | 30 | 182 | 9.7 | 17.7 | 0.00 | 0.03 | 0.00 | 71 | 1014.3 |
| 20260502191832 | 30 | 172 | 9.7 | 17.7 | 0.00 | 0.03 | 0.00 | 70 | 1014.3 |
| 20260502191329 | 30 | 160 | 8.0 | 16.1 | 0.00 | 0.03 | 0.00 | 70 | 1014.3 |
| 20260502190825 | 30 | 180 | 8.0 | 16.1 | 0.00 | 0.03 | 0.00 | 69 | 1014.3 |
| 20260502190328 | 30 | 138 | 8.0 | 16.1 | 0.00 | 0.03 | 0.00 | 68 | 1014.3 |
| 20260502185834 | 30 | 155 | 8.0 | 17.7 | 0.00 | 0.03 | 0.00 | 69 | 1014.4 |
| 20260502185330 | 30 | 186 | 9.7 | 22.5 | 0.00 | 0.03 | 0.00 | 69 | 1014.4 |
| 20260502184833 | 30 | 172 | 11.3 | 17.7 | 0.00 | 0.03 | 0.00 | 68 | 1014.4 |
| 20260502184328 | 30 | 204 | 8.0 | 17.7 | 0.00 | 0.03 | 0.00 | 69 | 1014.5 |
| 20260502183826 | 30 | 176 | 9.7 | 19.3 | 0.00 | 0.03 | 0.00 | 70 | 1014.5 |
| 20260502183330 | 30 | 206 | 8.0 | 19.3 | 0.00 | 0.03 | 0.00 | 72 | 1014.6 |
| 20260502182827 | 30 | 178 | 9.7 | 22.5 | 0.00 | 0.03 | 0.00 | 71 | 1014.7 |
| 20260502182333 | 30 | 168 | 9.7 | 22.5 | 0.00 | 0.03 | 0.00 | 71 | 1014.7 |
| 20260502181830 | 30 | 174 | 11.3 | 24.1 | 0.00 | 0.03 | 0.00 | 71 | 1014.8 |
| 20260502181327 | 30 | 203 | 9.7 | 24.1 | 0.00 | 0.03 | 0.00 | 71 | 1014.9 |
| 20260502180834 | 30 | 158 | 9.7 | 17.7 | 0.00 | 0.03 | 0.00 | 71 | 1014.8 |
| 20260502180329 | 30 | 167 | 8.0 | 20.9 | 0.00 | 0.03 | 0.00 | 72 | 1015.0 |
| 20260502170332 | 30 | 181 | 9.7 | 20.9 | 0.00 | 0.03 | 0.00 | 69 | 1015.5 |
| 20260502164327 | 30 | 198 | 9.7 | 19.3 | 0.00 | 0.03 | 0.00 | 67 | 1015.6 |
| 20260502163830 | 30 | 169 | 8.0 | 25.7 | 0.00 | 0.03 | 0.00 | 67 | 1015.7 |
| 20260502163326 | 30 | 224 | 8.0 | 25.7 | 0.00 | 0.03 | 0.00 | 65 | 1015.8 |
| 20260502162831 | 31 | 186 | 6.4 | 19.3 | 0.00 | 0.03 | 0.00 | 67 | 1015.8 |
| 20260502162325 | 30 | 186 | 9.7 | 20.9 | 0.00 | 0.03 | 0.00 | 68 | 1015.9 |
| 20260502161830 | 30 | 179 | 11.3 | 20.9 | 0.00 | 0.03 | 0.00 | 69 | 1015.9 |
| 20260502161329 | 30 | 231 | 8.0 | 24.1 | 0.00 | 0.03 | 0.00 | 70 | 1015.9 |
| 20260502160826 | 30 | 174 | 12.9 | 24.1 | 0.00 | 0.03 | 0.00 | 70 | 1015.9 |
| 20260502160331 | 30 | 148 | 11.3 | 24.1 | 0.00 | 0.03 | 0.00 | 72 | 1016.0 |
| 20260502152325 | 30 | 165 | 8.0 | 16.1 | 0.00 | 0.03 | 0.00 | 72 | 1016.0 |
| 20260502151831 | 30 | 151 | 6.4 | 12.9 | 0.00 | 0.03 | 0.00 | 71 | 1016.0 |
| 20260502151327 | 30 | 212 | 3.2 | 12.9 | 0.00 | 0.03 | 0.00 | 72 | 1016.0 |
| 20260502150833 | 30 | 145 | 4.8 | 12.9 | 0.00 | 0.03 | 0.00 | 72 | 1016.0 |
| 20260502150329 | 30 | 179 | 1.6 | 9.7 | 0.00 | 0.03 | 0.00 | 73 | 1016.1 |
| 20260502130326 | 27 | 49 | 1.6 | 8.0 | 0.00 | 0.03 | 0.00 | 77 | 1016.0 |
| 20260502123329 | 27 | 50 | 0.0 | 6.4 | 0.00 | 0.03 | 0.00 | 80 | 1015.9 |
| 20260502122834 | 27 | 27 | 0.0 | 4.8 | 0.00 | 0.03 | 0.00 | 80 | 1015.8 |
| 20260502122329 | 26 | 17 | 0.0 | 6.4 | 0.00 | 0.03 | 0.00 | 81 | 1015.8 |
| 20260502121834 | 26 | 11 | 1.6 | 9.7 | 0.00 | 0.03 | 0.00 | 81 | 1015.8 |
| 20260502121329 | 26 | 320 | 3.2 | 9.7 | 0.00 | 0.03 | 0.00 | 82 | 1015.7 |
| 20260502120828 | 26 | 359 | 0.0 | 8.0 | 0.00 | 0.03 | 0.00 | 82 | 1015.6 |
| 20260502120334 | 26 | 18 | 0.0 | 8.0 | 0.00 | 0.03 | 0.00 | 83 | 1015.7 |
| 20260502115830 | 26 | 354 | 0.0 | 6.4 | 0.00 | 0.03 | 0.00 | 83 | 1015.6 |
| 20260502115326 | 25 | 36 | 0.0 | 4.8 | 0.00 | 0.03 | 0.00 | 83 | 1015.6 |
| 20260502114833 | 25 | 13 | 0.0 | 4.8 | 0.00 | 0.03 | 0.00 | 84 | 1015.6 |
| 20260502114328 | 25 | 3 | 0.0 | 1.6 | 0.00 | 0.03 | 0.00 | 85 | 1015.6 |
| 20260502113833 | 25 | 18 | 0.0 | 3.2 | 0.00 | 0.03 | 0.00 | 85 | 1015.6 |
| 20260502113328 | 25 | 7 | 0.0 | 1.6 | 0.00 | 0.03 | 0.00 | 85 | 1015.7 |
| 20260502112834 | 25 | 18 | 0.0 | 1.6 | 0.00 | 0.03 | 0.00 | 86 | 1015.5 |
| 20260502112330 | 24 | 67 | 0.0 | 1.6 | 0.00 | 0.03 | 0.00 | 87 | 1015.5 |
| 20260502111826 | 24 | 339 | 0.0 | 3.2 | 0.00 | 0.03 | 0.00 | 88 | 1015.4 |
| 20260502111333 | 24 | 342 | 0.0 | 3.2 | 0.00 | 0.03 | 0.00 | 88 | 1015.3 |
| 20260502110829 | 23 | 20 | 0.0 | 0.0 | 0.00 | 0.03 | 0.00 | 88 | 1015.2 |
| 20260502110334 | 23 | 349 | 0.0 | 4.8 | 0.00 | 0.03 | 0.00 | 88 | 1015.2 |
| 20260502105830 | 23 | 23 | 0.0 | 6.4 | 0.00 | 0.03 | 0.00 | 88 | 1015.0 |
| 20260502105326 | 23 | 37 | 0.0 | 6.4 | 0.00 | 0.03 | 0.00 | 88 | 1014.9 |
| 20260502104908 | -17 | 0.0 | 0.0 | 0.00 | 0.03 | 0.00 | 1014.9 | ||
| 20260502104329 | -17 | 0.0 | 0.0 | 0.00 | 0.03 | 0.00 | 1014.9 | ||
| 20260502103833 | -17 | 0.0 | 0.0 | 0.00 | 0.03 | 0.00 | 1014.8 | ||
| 20260502103339 | -17 | 0.0 | 0.0 | 0.00 | 0.03 | 0.00 | 1014.8 | ||
| 20260502102419 | -17 | 0.0 | 0.0 | 0.00 | 0.03 | 0.00 | 1014.7 | ||
| 20260502101841 | -17 | 0.0 | 0.0 | 0.00 | 0.03 | 0.00 | 1014.7 | ||
| 20260502101343 | -17 | 0.0 | 0.0 | 0.00 | 0.03 | 0.00 | 1014.7 | ||
| 20260502100827 | -17 | 0.0 | 0.0 | 0.00 | 0.03 | 0.00 | 1014.6 | ||
| 20260502100413 | -17 | 0.0 | 0.0 | 0.00 | 0.03 | 0.00 | 1014.6 | ||
| 20260502091405 | -17 | 0.0 | 0.0 | 0.00 | 0.03 | 0.00 | 1014.2 | ||
| 20260502090908 | -17 | 0.0 | 0.0 | 0.00 | 0.03 | 0.00 | 1014.1 | ||
| 20260502090336 | -17 | 0.0 | 0.0 | 0.00 | 0.03 | 0.00 | 1014.1 | ||
| 20260502071326 | -17 | 0.0 | 0.0 | 0.00 | 0.03 | 0.00 | 1013.7 | ||
| 20260502070911 | -17 | 0.0 | 0.0 | 0.00 | 0.03 | 0.00 | 1013.7 | ||
| 20260502070401 | -17 | 0.0 | 0.0 | 0.00 | 0.03 | 0.00 | 1013.7 | ||
| 20260502065831 | -17 | 0.0 | 0.0 | 0.00 | 0.03 | 0.00 | 1013.7 | ||
| 20260502065336 | -17 | 0.0 | 0.0 | 0.00 | 0.03 | 0.00 | 1013.7 | ||
| 20260502064840 | -17 | 0.0 | 0.0 | 0.00 | 0.03 | 0.00 | 1013.6 | ||
| 20260502064404 | -17 | 0.0 | 0.0 | 0.00 | 0.03 | 0.00 | 1013.7 | ||
| 20260502063906 | -17 | 0.0 | 0.0 | 0.00 | 0.03 | 0.00 | 1013.7 | ||
| 20260502063334 | -17 | 0.0 | 0.0 | 0.00 | 0.03 | 0.00 | 1013.7 | ||
| 20260502062829 | -17 | 0.0 | 0.0 | 0.00 | 0.03 | 0.00 | 1013.7 | ||
| 20260502062333 | -17 | 0.0 | 0.0 | 0.00 | 0.03 | 0.03 | 1013.7 | ||
| 20260502061905 | -17 | 0.0 | 0.0 | 0.00 | 0.03 | 0.03 | 1013.8 | ||
| 20260502061415 | -17 | 0.0 | 0.0 | 0.00 | 0.03 | 0.03 | 1013.9 | ||
| 20260502060838 | -17 | 0.0 | 0.0 | 0.00 | 0.03 | 0.03 | 1013.9 | ||
| 20260502060343 | -17 | 0.0 | 0.0 | 0.00 | 0.03 | 0.03 | 1014.0 | ||
| 20260502055828 | -17 | 0.0 | 0.0 | 0.00 | 0.03 | 0.03 | 1014.0 | ||
| 20260502055413 | -17 | 0.0 | 0.0 | 0.00 | 0.03 | 0.03 | 1014.1 | ||
| 20260502054329 | -17 | 0.0 | 0.0 | 0.00 | 0.03 | 0.03 | 1014.1 | ||
| 20260502053833 | -17 | 0.0 | 0.0 | 0.00 | 0.03 | 0.03 | 1014.1 |